| time (UTC) | temp F | wind direction | speed MPH | gust MPH | rain 1hr in | rain 24hr in | rain mn in | humidity % | barometer mb |
| 20260503004537 | 48 | 0.0 | 0.0 | 0.00 | 0.00 | 0.00 | 73 | 1016.5 | |
| 20260503003043 | 49 | 0.0 | 0.0 | 0.00 | 0.00 | 0.00 | 73 | 1016.5 | |
| 20260503001540 | 49 | 0.0 | 0.0 | 0.00 | 0.00 | 0.00 | 72 | 1016.6 | |
| 20260503000034 | 49 | 0.0 | 0.0 | 0.00 | 0.00 | 0.00 | 71 | 1016.7 | |
| 20260502234538 | 50 | 0.0 | 0.0 | 0.00 | 0.00 | 0.00 | 71 | 1016.8 | |
| 20260502233037 | 50 | 0.0 | 0.0 | 0.00 | 0.00 | 0.00 | 70 | 1016.9 | |
| 20260502231524 | 50 | 0.0 | 0.0 | 0.00 | 0.00 | 0.00 | 69 | 1017.1 | |
| 20260502230031 | 51 | 0.0 | 0.0 | 0.00 | 0.00 | 0.00 | 68 | 1017.2 | |
| 20260502224519 | 51 | 0.0 | 0.0 | 0.00 | 0.00 | 0.00 | 67 | 1017.2 | |
| 20260502223024 | 52 | 0.0 | 0.0 | 0.00 | 0.00 | 0.00 | 66 | 1017.3 | |
| 20260502221515 | 52 | 0.0 | 0.0 | 0.00 | 0.00 | 0.00 | 65 | 1017.4 | |
| 20260502220017 | 53 | 0.0 | 0.0 | 0.00 | 0.00 | 0.00 | 64 | 1017.3 | |
| 20260502214510 | 54 | 0.0 | 0.0 | 0.00 | 0.00 | 0.00 | 63 | 1017.4 | |
| 20260502213009 | 55 | 0.0 | 0.0 | 0.00 | 0.00 | 0.00 | 61 | 1017.4 | |
| 20260502211509 | 55 | 0.0 | 0.0 | 0.00 | 0.00 | 0.00 | 61 | 1017.5 | |
| 20260502210009 | 55 | 0.0 | 0.0 | 0.00 | 0.00 | 0.00 | 60 | 1017.6 | |
| 20260502204507 | 56 | 0.0 | 0.0 | 0.00 | 0.00 | 0.00 | 59 | 1017.8 | |
| 20260502203007 | 57 | 0.0 | 0.0 | 0.00 | 0.00 | 0.00 | 58 | 1017.8 | |
| 20260502201507 | 58 | 0.0 | 0.0 | 0.00 | 0.00 | 0.00 | 57 | 1017.9 | |
| 20260502200006 | 58 | 0.0 | 0.0 | 0.00 | 0.00 | 0.00 | 55 | 1017.9 | |
| 20260502194514 | 59 | 0.0 | 0.0 | 0.00 | 0.00 | 0.00 | 54 | 1017.9 | |
| 20260502193005 | 60 | 0.0 | 0.0 | 0.00 | 0.00 | 0.00 | 52 | 1018.1 | |
| 20260502191505 | 61 | 0.0 | 0.0 | 0.00 | 0.00 | 0.00 | 50 | 1018.0 | |
| 20260502190005 | 63 | 0.0 | 0.0 | 0.00 | 0.00 | 0.00 | 46 | 1018.0 | |
| 20260502184504 | 65 | 0.0 | 0.0 | 0.00 | 0.00 | 0.00 | 43 | 1017.9 | |
| 20260502183004 | 67 | 0.0 | 0.0 | 0.00 | 0.00 | 0.00 | 38 | 1017.7 | |
| 20260502181509 | 69 | 0.0 | 0.0 | 0.00 | 0.00 | 0.00 | 35 | 1017.6 | |
| 20260502163103 | 78 | 0.0 | 0.0 | 0.00 | 0.00 | 0.00 | 27 | 1017.7 | |
| 20260502161556 | 78 | 0.0 | 0.0 | 0.00 | 0.00 | 0.00 | 26 | 1017.9 | |
| 20260502151601 | 79 | 0.0 | 0.0 | 0.00 | 0.00 | 0.00 | 25 | 1018.5 | |
| 20260502123038 | 77 | 0.0 | 0.0 | 0.00 | 0.00 | 0.00 | 28 | 1020.5 | |
| 20260502121531 | 76 | 0.0 | 0.0 | 0.00 | 0.00 | 0.00 | 30 | 1020.6 | |
| 20260502114525 | 76 | 0.0 | 0.0 | 0.00 | 0.00 | 0.00 | 28 | 1021.0 | |
| 20260502113023 | 74 | 0.0 | 0.0 | 0.00 | 0.00 | 0.00 | 29 | 1021.3 | |
| 20260502111521 | 75 | 0.0 | 0.0 | 0.00 | 0.00 | 0.00 | 30 | 1021.4 | |
| 20260502110021 | 74 | 0.0 | 0.0 | 0.00 | 0.00 | 0.00 | 29 | 1021.7 | |
| 20260502104516 | 74 | 0.0 | 0.0 | 0.00 | 0.00 | 0.00 | 29 | 1021.8 | |
| 20260502103014 | 74 | 0.0 | 0.0 | 0.00 | 0.00 | 0.00 | 31 | 1022.0 | |
| 20260502101511 | 73 | 0.0 | 0.0 | 0.00 | 0.00 | 0.00 | 32 | 1022.1 | |
| 20260502091503 | 70 | 0.0 | 0.0 | 0.00 | 0.00 | 0.00 | 36 | 1022.8 | |
| 20260502070046 | 62 | 0.0 | 0.0 | 0.00 | 0.00 | 0.00 | 50 | 1023.5 | |
| 20260502064537 | 61 | 0.0 | 0.0 | 0.00 | 0.00 | 0.00 | 52 | 1023.5 | |
| 20260502063035 | 61 | 0.0 | 0.0 | 0.00 | 0.00 | 0.00 | 51 | 1023.5 | |
| 20260502061537 | 59 | 0.0 | 0.0 | 0.00 | 0.00 | 0.00 | 52 | 1023.6 | |
| 20260502060029 | 59 | 0.0 | 0.0 | 0.00 | 0.00 | 0.00 | 53 | 1023.4 | |
| 20260502054526 | 58 | 0.0 | 0.0 | 0.00 | 0.00 | 0.00 | 54 | 1023.4 | |
| 20260502053023 | 57 | 0.0 | 0.0 | 0.00 | 0.00 | 0.00 | 55 | 1023.4 | |
| 20260502051525 | 56 | 0.0 | 0.0 | 0.00 | 0.00 | 0.00 | 57 | 1023.5 | |
| 20260502050022 | 54 | 0.0 | 0.0 | 0.00 | 0.00 | 0.00 | 59 | 1023.4 | |
| 20260502044521 | 53 | 0.0 | 0.0 | 0.00 | 0.00 | 0.00 | 61 | 1023.4 | |
| 20260502043023 | 53 | 0.0 | 0.0 | 0.00 | 0.00 | 0.00 | 61 | 1023.3 | |
| 20260502041526 | 53 | 0.0 | 0.0 | 0.00 | 0.00 | 0.00 | 60 | 1023.3 | |
| 20260502040019 | 52 | 0.0 | 0.0 | 0.00 | 0.00 | 0.00 | 60 | 1023.3 | |
| 20260502034516 | 53 | 0.0 | 0.0 | 0.00 | 0.00 | 0.00 | 59 | 1023.2 | |
| 20260502033023 | 54 | 0.0 | 0.0 | 0.00 | 0.00 | 0.00 | 57 | 1023.1 | |
| 20260502031515 | 54 | 0.0 | 0.0 | 0.00 | 0.00 | 0.00 | 57 | 1023.0 | |
| 20260502030013 | 54 | 0.0 | 0.0 | 0.00 | 0.00 | 0.00 | 57 | 1023.0 | |
| 20260502024511 | 55 | 0.0 | 0.0 | 0.00 | 0.00 | 0.00 | 55 | 1023.1 | |
| 20260502023011 | 55 | 0.0 | 0.0 | 0.00 | 0.00 | 0.00 | 55 | 1023.0 | |
| 20260502021510 | 56 | 0.0 | 0.0 | 0.00 | 0.00 | 0.00 | 54 | 1023.1 | |
| 20260502020010 | 56 | 0.0 | 0.0 | 0.00 | 0.00 | 0.00 | 54 | 1023.2 | |
| 20260502014508 | 55 | 0.0 | 0.0 | 0.00 | 0.00 | 0.00 | 55 | 1023.2 | |
| 20260502013009 | 55 | 0.0 | 0.0 | 0.00 | 0.00 | 0.00 | 55 | 1023.2 | |
| 20260502011506 | 55 | 0.0 | 0.0 | 0.00 | 0.00 | 0.00 | 56 | 1023.4 | |
| 20260502010114 | 55 | 0.0 | 0.0 | 0.00 | 0.00 | 0.00 | 56 | 1023.4 |